{"data":{"norad_id":65344,"intl_designator":"2025-189X","name":"STARLINK-35088","alt_names":[],"object_type":"PAYLOAD","status":"ACTIVE","operator":null,"country":"US","launch_date":"2025-08-27","launch_site_code":"AFETR","launch_vehicle":null,"mission":null,"orbit_class":"UNKNOWN","rcs_meters":null,"size_class":null,"mass_kg":null,"dimensions":null,"purposes":["comms"],"wikipedia_slug":null,"has_3d_model":false,"image_url":null,"decayed_at":null,"tle_current":{"epoch":"2026-09-20T20:12:26.639136Z","epoch_age_seconds":88078,"freshness":"FRESH","line1":"1 65344U 25189X   26263.84197499  .00022264  00000+0  66771-3 0  9992","line2":"2 65344  53.1609  18.2853 0000764  66.9416 293.1667 15.34419006 61020","mean_motion":15.34419006,"eccentricity":7.64e-5,"inclination_deg":53.1609,"raan_deg":18.2853,"arg_perigee_deg":66.9416,"mean_anomaly_deg":293.1667,"bstar":0.00066771,"rev_number":6102,"period_min":93.846595641034,"perigee_km":462.12411507429,"apogee_km":463.16938683144,"semimajor_km":6840.7837509529,"source":"CELESTRAK","updated_at":"2026-09-21T09:00:35.573345Z"}}}